Al Hoceima, Morocco

1:15 AM WET on December 14, 2017 (GMT +0000)
Al Hoceima

Weather History for GMTA - February, 2013

Change the Weather History Date:

Tuesday, February 19, 2013

  Actual Average Record
Temperature  
Mean Temperature 60 °F -  
Max Temperature 64 °F 62 °F 69 °F (1998)
Min Temperature 55 °F 48 °F 37 °F (2005)
Degree Days  
Heating Degree Days 6    
Growing Degree Days 10 (Base 50)    
Moisture  
Dew Point 52 °F    
Average Humidity 73    
Maximum Humidity 82    
Minimum Humidity 64    
Precipitation  
Precipitation 0.00 in - - ()
Sea Level Pressure  
Sea Level Pressure 29.80 in    
Wind  
Wind Speed 5 mph ()    
Max Wind Speed 9 mph    
Max Gust Speed -    
Visibility 6.0 miles    
Events Rain    
Averages and records for this station are not official NWS values.
T = Trace of Precipitation, MM = Missing Value Source: Averaged Metar Reports

Daily Weather History Graph

Daily Weather History Graph

Search for Another Location

Airport or City:

Trip Planner

Search our weather history database for the weather conditions in past years. The results will help you decide how hot, cold, wet, or windy it might be!

Date:

Astronomy

Feb. 19, 2013 Rise Set
Actual Time 6:57 AM WET 6:01 PM WET
Civil Twilight 6:31 AM WET 6:27 PM WET
Nautical Twilight 6:01 AM WET 6:57 PM WET
Astronomical Twilight 5:32 AM WET 7:26 PM WET
Moon 12:28 PM WET (2/19) 2:10 AM WET (2/19)
Length of Visible Light 11h 56m
Length of Day
11h 04m
Waxing Gibbous, 65% of the Moon is Illuminated
Feb 19
Waxing Gibbous
Feb 25
Full
Mar 4
Last Quarter
Mar 11
New
Mar 19
First Quarter

Hourly Weather History & Observations

Time (WET) Temp. Dew Point Humidity Pressure Visibility Wind Dir Wind Speed Gust Speed Precip Events Conditions
6:00 AM 55 °F 47 °F 68% 29.79 in 6 mi WNW 2.3 mph - - Rain Light Rain
6:00 AM 55.4 °F 48.2 °F 77% 29.77 in 6.2 mi WNW 2.3 mph - N/A Rain Light Rain
7:00 AM 55.4 °F 48.2 °F 77% 29.77 in 6.2 mi NW 4.6 mph - N/A   Overcast
8:00 AM 59.0 °F 50.0 °F 72% 29.80 in 6.2 mi West 9.2 mph - N/A   Overcast
9:00 AM 60 °F 53 °F 70% 29.84 in 5 mi WNW 6.9 mph - -   Overcast
9:00 AM 60.8 °F 53.6 °F 77% 29.83 in 5.0 mi WNW 6.9 mph - N/A   Overcast
10:00 AM 62.6 °F 53.6 °F 72% 29.83 in 5.0 mi West 4.6 mph - N/A   Overcast
11:00 AM 64.4 °F 53.6 °F 68% 29.83 in 6.2 mi NW 6.9 mph - N/A   Overcast
12:00 PM 62 °F 54 °F 67% 29.83 in 6 mi NNE 6.9 mph - -   Overcast
12:00 PM 62.6 °F 53.6 °F 72% 29.83 in 6.2 mi NNE 6.9 mph - N/A   Overcast
1:00 PM 62.6 °F 55.4 °F 77% 29.80 in 6.2 mi SSE 9.2 mph - N/A   Mostly Cloudy
2:00 PM 62.6 °F 53.6 °F 72% 29.77 in 6.2 mi SW 9.2 mph - N/A   Mostly Cloudy
3:00 PM 61 °F 52 °F 65% 29.77 in 6 mi NE 9.2 mph - -   Partly Cloudy
3:00 PM 60.8 °F 53.6 °F 77% 29.77 in 6.2 mi NE 9.2 mph - N/A   Mostly Cloudy
4:00 PM 62.6 °F 53.6 °F 72% 29.74 in 6.2 mi NNE 4.6 mph - N/A   Mostly Cloudy
5:00 PM 60.8 °F 51.8 °F 72% 29.77 in 6.2 mi NNE 2.3 mph - N/A   Mostly Cloudy
6:00 PM 61 °F 52 °F 64% 29.78 in 6 mi SSW 2.3 mph - -   Partly Cloudy
6:00 PM 60.8 °F 51.8 °F 72% 29.77 in 6.2 mi SSW 2.3 mph - N/A   Mostly Cloudy
7:00 PM 59.0 °F 51.8 °F 77% 29.80 in 6.2 mi West 2.3 mph - N/A   Mostly Cloudy
8:00 PM 59.0 °F 51.8 °F 77% 29.80 in 6.2 mi SSE 4.6 mph - N/A   Mostly Cloudy
9:00 PM 58 °F 51 °F 71% 29.81 in 6 mi SW 2.3 mph - -   Partly Cloudy
9:00 PM 57.2 °F 51.8 °F 82% 29.80 in 6.2 mi SSW 2.3 mph - N/A   Mostly Cloudy